• In Portugal
  • List of Countries
  • For 7 days
  • Water Temperature
  • Satellite Maps
  • Weather Map
  • Weather Widgets
  • user-avatar
    Login

    Hourly Weather Sazonovka

    Today, 20 September, Thursday

    Time Temperature Precipitation Wind Pressure Humidity
    00:00 +16°C° 0 mm 3 mps 746 mmHg 93%
    01:00 +16°C° 0 mm 3 mps 746 mmHg 94%
    02:00 +16°C° 0 mm 3 mps 746 mmHg 95%
    03:00 +14°C° 0 mm 3 mps 746 mmHg 95%
    04:00 +14°C° 0 mm 3 mps 746 mmHg 96%
    05:00 +15°C° 0 mm 2 mps 746 mmHg 96%
    06:00 +16°C° 0 mm 3 mps 746 mmHg 94%
    07:00 +17°C° 0 mm 3 mps 746 mmHg 91%
    08:00 +17°C° 0 mm 3 mps 747 mmHg 89%
    09:00 +19°C° 0 mm 3 mps 747 mmHg 82%
    10:00 +20°C° 0 mm 3 mps 747 mmHg 74%
    11:00 +22°C° 0 mm 3 mps 747 mmHg 67%
    12:00 +22°C° 0 mm 3 mps 747 mmHg 64%
    13:00 +24°C° 0 mm 3 mps 747 mmHg 61%
    14:00 +24°C° 0 mm 3 mps 747 mmHg 58%
    15:00 +22°C° 0 mm 3 mps 747 mmHg 62%
    16:00 +23°C° 0 mm 2 mps 747 mmHg 67%
    17:00 +21°C° 0 mm 2 mps 747 mmHg 71%
    18:00 +19°C° 0 mm 2 mps 747 mmHg 74%
    19:00 +19°C° 0 mm 1 mps 747 mmHg 77%
    20:00 +18°C° 0 mm 1 mps 747 mmHg 81%
    21:00 +16°C° 0 mm 1 mps 747 mmHg 81%
    22:00 +16°C° 0 mm 1 mps 747 mmHg 82%
    23:00 +16°C° 0 mm 1 mps 747 mmHg 82%

    Tomorrow, 21 September, Friday

    Time Temperature Precipitation Wind Pressure Humidity
    00:00 +16°C° 0 mm 1 mps 748 mmHg 84%
    01:00 +15°C° 0 mm 1 mps 748 mmHg 86%
    02:00 +15°C° 0 mm 1 mps 748 mmHg 87%
    03:00 +15°C° 0 mm 1 mps 748 mmHg 88%
    04:00 +15°C° 0 mm 1 mps 748 mmHg 90%
    05:00 +15°C° 0 mm 1 mps 748 mmHg 91%
    06:00 +16°C° 0 mm 1 mps 748 mmHg 89%
    07:00 +17°C° 0 mm 2 mps 748 mmHg 87%
    08:00 +19°C° 0 mm 2 mps 748 mmHg 84%
    09:00 +20°C° 0 mm 2 mps 748 mmHg 79%
    10:00 +23°C° 0 mm 2 mps 748 mmHg 74%
    11:00 +25°C° 0 mm 3 mps 748 mmHg 69%
    12:00 +25°C° 0 mm 3 mps 748 mmHg 67%
    13:00 +26°C° 0 mm 3 mps 748 mmHg 65%
    14:00 +26°C° 0 mm 3 mps 747 mmHg 62%
    15:00 +25°C° 0 mm 3 mps 747 mmHg 66%
    16:00 +24°C° 0 mm 2 mps 747 mmHg 70%
    17:00 +24°C° 0 mm 2 mps 747 mmHg 74%
    18:00 +21°C° 0 mm 3 mps 746 mmHg 77%
    19:00 +20°C° 0 mm 3 mps 746 mmHg 80%
    20:00 +19°C° 0 mm 3 mps 746 mmHg 83%
    21:00 +18°C° 0 mm 3 mps 746 mmHg 84%
    22:00 +18°C° 0 mm 3 mps 746 mmHg 84%
    23:00 +17°C° 0 mm 4 mps 745 mmHg 85%

    Day after tomorrow, 22 September, Saturday

    Time Temperature Precipitation Wind Pressure Humidity
    00:00 +17°C° 0 mm 4 mps 745 mmHg 85%
    01:00 +17°C° 0 mm 4 mps 745 mmHg 84%
    02:00 +17°C° 0 mm 4 mps 744 mmHg 84%
    03:00 +16°C° 0 mm 5 mps 744 mmHg 83%
    04:00 +15°C° 0 mm 5 mps 743 mmHg 81%
    05:00 +15°C° 0 mm 5 mps 743 mmHg 80%
    06:00 +16°C° 0 mm 5 mps 743 mmHg 78%
    07:00 +16°C° 0 mm 6 mps 742 mmHg 76%
    08:00 +17°C° 0 mm 6 mps 742 mmHg 73%
    09:00 +19°C° 0 mm 6 mps 742 mmHg 70%
    10:00 +20°C° 0 mm 6 mps 742 mmHg 66%
    11:00 +21°C° 0 mm 6 mps 742 mmHg 62%
    12:00 +20°C° 0.5 mm 6 mps 742 mmHg 67%
    13:00 +19°C° 0.5 mm 6 mps 742 mmHg 72%
    14:00 +17°C° 0.5 mm 6 mps 742 mmHg 76%
    15:00 +16°C° 1.3 mm 5 mps 742 mmHg 81%
    16:00 +14°C° 1.3 mm 4 mps 742 mmHg 85%
    17:00 +12°C° 1.3 mm 3 mps 742 mmHg 90%
    18:00 +12°C° 0.7 mm 3 mps 743 mmHg 90%
    19:00 +12°C° 0.7 mm 4 mps 743 mmHg 90%
    20:00 +11°C° 0.7 mm 4 mps 743 mmHg 90%
    21:00 +11°C° 1.1 mm 4 mps 743 mmHg 90%
    22:00 +10°C° 1.1 mm 4 mps 743 mmHg 91%
    23:00 +10°C° 1.1 mm 3 mps 743 mmHg 91%

    23 September, Sunday

    Time Temperature Precipitation Wind Pressure Humidity
    00:00 +9°C° 0.3 mm 3 mps 743 mmHg 92%
    01:00 +9°C° 0.3 mm 3 mps 743 mmHg 92%
    02:00 +9°C° 0.3 mm 3 mps 743 mmHg 93%
    03:00 +9°C° 0.1 mm 3 mps 743 mmHg 94%
    04:00 +9°C° 0.1 mm 3 mps 742 mmHg 94%
    05:00 +8°C° 0.1 mm 3 mps 742 mmHg 95%
    06:00 +9°C° 0 mm 3 mps 742 mmHg 93%
    07:00 +9°C° 0 mm 3 mps 742 mmHg 91%
    08:00 +8°C° 0 mm 4 mps 741 mmHg 89%
    09:00 +11°C° 0 mm 4 mps 741 mmHg 82%
    10:00 +12°C° 0 mm 5 mps 741 mmHg 76%
    11:00 +13°C° 0 mm 5 mps 741 mmHg 69%
    12:00 +14°C° 0.2 mm 6 mps 741 mmHg 68%
    13:00 +14°C° 0.2 mm 6 mps 741 mmHg 66%
    14:00 +14°C° 0.2 mm 6 mps 741 mmHg 64%
    15:00 +13°C° 0.2 mm 6 mps 741 mmHg 68%
    16:00 +12°C° 0.2 mm 5 mps 741 mmHg 71%
    17:00 +12°C° 0.2 mm 4 mps 741 mmHg 75%
    18:00 +11°C° 0 mm 4 mps 741 mmHg 78%
    19:00 +10°C° 0 mm 4 mps 741 mmHg 81%
    20:00 +9°C° 0 mm 3 mps 742 mmHg 83%
    21:00 +8°C° 0 mm 3 mps 742 mmHg 84%
    22:00 +7°C° 0 mm 4 mps 742 mmHg 85%
    23:00 +7°C° 0 mm 4 mps 742 mmHg 85%

    24 September, Monday

    Time Temperature Precipitation Wind Pressure Humidity
    00:00 +7°C° 0 mm 3 mps 741 mmHg 87%
    01:00 +7°C° 0 mm 3 mps 741 mmHg 89%
    02:00 +5°C° 0 mm 3 mps 741 mmHg 90%
    03:00 +5°C° 0 mm 3 mps 741 mmHg 90%
    04:00 +5°C° 0 mm 3 mps 741 mmHg 89%
    05:00 +6°C° 0 mm 2 mps 740 mmHg 89%
    06:00 +7°C° 0 mm 3 mps 740 mmHg 84%
    07:00 +7°C° 0 mm 4 mps 739 mmHg 80%
    08:00 +8°C° 0 mm 4 mps 739 mmHg 76%
    09:00 +8°C° 0.3 mm 4 mps 738 mmHg 77%
    10:00 +8°C° 0.3 mm 4 mps 738 mmHg 79%
    11:00 +8°C° 0.3 mm 5 mps 738 mmHg 80%
    12:00 +8°C° 0.8 mm 6 mps 736 mmHg 82%
    13:00 +7°C° 0.8 mm 8 mps 735 mmHg 84%
    14:00 +7°C° 0.8 mm 9 mps 733 mmHg 87%
    15:00 +7°C° 2.6 mm 9 mps 732 mmHg 88%
    16:00 +7°C° 2.6 mm 9 mps 730 mmHg 89%
    17:00 +8°C° 2.6 mm 9 mps 729 mmHg 90%
    18:00 +9°C° 1.6 mm 8 mps 728 mmHg 91%
    19:00 +10°C° 1.6 mm 7 mps 726 mmHg 92%
    20:00 +11°C° 1.6 mm 6 mps 725 mmHg 93%
    21:00 +11°C° 0.5 mm 7 mps 724 mmHg 92%
    22:00 +11°C° 0.5 mm 7 mps 723 mmHg 92%
    23:00 +11°C° 0.5 mm 7 mps 723 mmHg 91%

    25 September, Tuesday

    Time Temperature Precipitation Wind Pressure Humidity
    00:00 +10°C° 0.1 mm 7 mps 722 mmHg 90%
    01:00 +9°C° 0.1 mm 7 mps 722 mmHg 90%
    02:00 +9°C° 0.1 mm 7 mps 722 mmHg 89%
    03:00 +9°C° 0.2 mm 7 mps 722 mmHg 90%
    04:00 +8°C° 0.2 mm 6 mps 722 mmHg 91%
    05:00 +8°C° 0.2 mm 6 mps 721 mmHg 92%
    06:00 +8°C° 0.5 mm 6 mps 722 mmHg 91%
    07:00 +8°C° 0.5 mm 7 mps 722 mmHg 91%
    08:00 +8°C° 0.5 mm 7 mps 723 mmHg 90%
    09:00 +6°C° 0.1 mm 7 mps 724 mmHg 89%
    10:00 +6°C° 0.1 mm 7 mps 725 mmHg 87%
    11:00 +6°C° 0.1 mm 8 mps 726 mmHg 86%
    12:00 +6°C° 0.3 mm 8 mps 727 mmHg 86%
    13:00 +6°C° 0.3 mm 9 mps 728 mmHg 85%
    14:00 +6°C° 0.3 mm 9 mps 729 mmHg 85%
    15:00 +6°C° 0.3 mm 9 mps 730 mmHg 85%
    16:00 +5°C° 0.3 mm 9 mps 731 mmHg 85%
    17:00 +5°C° 0.3 mm 10 mps 732 mmHg 84%
    18:00 +5°C° 0.1 mm 9 mps 733 mmHg 84%
    19:00 +3°C° 0.1 mm 9 mps 734 mmHg 83%
    20:00 +3°C° 0.1 mm 9 mps 735 mmHg 83%
    21:00 +2°C° 0.1 mm 8 mps 735 mmHg 83%
    22:00 +2°C° 0.1 mm 8 mps 736 mmHg 82%
    23:00 +3°C° 0.1 mm 7 mps 737 mmHg 82%
    Show more